DW5582 Weather Reports


time (UTC)temp
F
wind
direction
speed
knots
gust
knots
rain 1hr
in
rain 24hr
in
rain mn
in
humidity
%
barometer
mb
20260510190019 53 64 0.0 3.5 0.00 0.00 0.00 66 1014.5
20260510184513 54 64 0.9 6.1 0.00 0.00 0.00 64 1014.5
20260510183012 54 61 1.7 7.8 0.00 0.00 0.00 63 1014.6
20260510181534 55 92 2.6 5.2 0.00 0.00 0.00 64 1014.7
20260510180021 55 70 0.9 7.8 0.00 0.00 0.00 63 1014.7
20260510174513 56 108 2.6 10.4 0.00 0.00 0.00 62 1014.8
20260510173020 56 352 1.7 7.8 0.00 0.00 0.00 63 1014.9
20260510171514 56 58 0.9 8.7 0.00 0.00 0.00 63 1015.1
20260510170012 56 73 1.7 9.6 0.00 0.00 0.00 64 1015.1
20260510164512 57 9 5.2 9.6 0.00 0.00 0.00 64 1015.2
20260510163017 56 53 0.9 9.6 0.00 0.00 0.00 64 1015.4
20260510161515 57 49 4.3 10.4 0.00 0.00 0.00 63 1015.5
20260510160012 57 38 2.6 8.7 0.00 0.00 0.00 66 1015.6
20260510154514 56 76 1.7 12.2 0.00 0.00 0.00 67 1015.8
20260510153030 56 29 1.7 10.4 0.00 0.00 0.00 67 1015.9
20260510151511 55 72 2.6 10.4 0.00 0.00 0.00 68 1016.1
20260510150016 54 44 3.5 11.3 0.00 0.00 0.00 69 1016.4
20260510144521 54 48 4.3 12.2 0.00 0.00 0.00 69 1016.5
20260510143016 55 102 5.2 14.8 0.00 0.00 0.00 69 1016.7
20260510141516 55 82 6.1 15.6 0.00 0.00 0.00 70 1016.9
20260510140012 55 53 2.6 11.3 0.00 0.00 0.00 71 1017.0
20260510134518 55 36 2.6 12.2 0.00 0.00 0.00 71 1017.0
20260510133020 55 85 5.2 12.2 0.00 0.00 0.00 71 1017.1
20260510131518 54 32 6.1 12.2 0.00 0.00 0.00 70 1017.3
20260510130020 55 89 6.1 14.8 0.00 0.00 0.00 69 1017.1
20260510124516 56 54 7.0 12.2 0.00 0.00 0.00 69 1017.3
20260510123022 55 86 5.2 13.0 0.00 0.00 0.00 70 1017.4
20260510121520 55 86 4.3 14.8 0.00 0.00 0.00 71 1017.5
20260510120020 55 98 4.3 13.9 0.00 0.00 0.00 72 1017.5
20260510114520 54 109 5.2 10.4 0.00 0.00 0.00 73 1017.7
20260510113021 54 27 4.3 13.0 0.00 0.00 0.00 74 1017.9
20260510111522 54 61 4.3 12.2 0.00 0.00 0.00 74 1018.1
20260510110008 54 51 4.3 13.9 0.00 0.00 0.00 73 1018.2
20260510104512 54 64 4.3 13.0 0.00 0.00 0.00 73 1018.2
20260510103014 55 22 5.2 13.9 0.00 0.00 0.00 73 1018.1
20260510101522 55 78 3.5 13.9 0.00 0.00 0.00 72 1018.1
20260510100005 54 44 3.5 14.8 0.00 0.00 0.00 74 1018.1
20260510094510 54 13 5.2 17.4 0.00 0.00 0.00 74 1018.3
20260510093016 54 49 3.5 9.6 0.00 0.00 0.00 75 1018.2
20260510091517 53 12 1.7 12.2 0.00 0.00 0.00 75 1018.4
20260510090021 53 5 1.7 13.0 0.00 0.00 0.00 74 1018.5
20260510084507 53 61 4.3 12.2 0.00 0.00 0.00 74 1018.5
20260510083010 53 64 3.5 13.9 0.00 0.00 0.00 74 1018.6
20260510081519 53 61 4.3 12.2 0.00 0.00 0.00 75 1018.5
20260510080019 53 25 4.3 13.9 0.00 0.00 0.00 76 1018.5
20260510074523 52 97 4.3 14.8 0.00 0.00 0.00 77 1018.4
20260510073005 51 59 7.0 15.6 0.00 0.00 0.00 80 1018.4
20260510071510 50 69 4.3 17.4 0.00 0.00 0.00 80 1018.2
20260510070025 49 72 2.6 13.9 0.00 0.00 0.00 81 1018.2
20260510064526 49 80 2.6 13.9 0.00 0.00 0.00 82 1018.3
20260510063023 49 48 4.3 13.0 0.00 0.00 0.00 82 1018.2
20260510061509 49 59 4.3 12.2 0.00 0.00 0.00 83 1018.1
20260510060014 49 62 3.5 12.2 0.00 0.00 0.00 83 1018.2
20260510054524 48 64 7.8 13.9 0.00 0.00 0.00 84 1018.2
20260510053022 48 71 4.3 10.4 0.00 0.00 0.00 84 1018.3
20260510051538 48 26 2.6 13.0 0.00 0.00 0.00 84 1018.3
20260510050012 48 19 4.3 12.2 0.00 0.00 0.00 84 1018.3
20260510044522 47 67 2.6 10.4 0.00 0.00 0.00 85 1018.2
20260510043025 47 88 1.7 9.6 0.00 0.00 0.00 85 1018.4
20260510041506 47 74 1.7 8.7 0.00 0.00 0.00 84 1018.5
20260510040010 47 40 2.6 12.2 0.00 0.00 0.00 84 1018.6
20260510034514 47 74 1.7 9.6 0.00 0.00 0.00 84 1018.5
20260510033021 47 62 2.6 10.4 0.00 0.00 0.00 84 1018.7
20260510031522 48 57 2.6 11.3 0.00 0.00 0.00 83 1018.8
20260510030007 48 71 0.9 7.8 0.00 0.00 0.00 83 1018.7
20260510024510 48 42 3.5 9.6 0.00 0.00 0.00 82 1018.6
20260510023016 49 86 3.5 8.7 0.00 0.00 0.00 81 1018.7
20260510021519 49 67 2.6 11.3 0.00 0.00 0.00 80 1018.7
20260510020024 49 62 2.6 10.4 0.00 0.00 0.00 79 1018.6
20260510014519 49 61 1.7 11.3 0.00 0.00 0.00 78 1018.6
20260510013012 50 74 0.9 11.3 0.00 0.00 0.00 77 1018.7
20260510011526 50 69 0.9 8.7 0.00 0.00 0.00 77 1018.6
20260510010034 51 60 2.6 10.4 0.00 0.00 0.00 76 1018.5
20260510004524 51 61 2.6 10.4 0.00 0.00 0.00 75 1018.7
20260510003011 51 45 0.9 12.2 0.00 0.00 0.00 74 1018.7
20260510001516 51 39 1.7 8.7 0.00 0.00 0.00 74 1018.6
20260510000021 52 65 1.7 7.8 0.00 0.00 0.00 74 1018.5
20260509234525 52 33 0.9 10.4 0.00 0.00 0.00 77 1018.4
20260509233024 52 32 4.3 13.0 0.00 0.00 0.00 81 1018.2
20260509231515 53 53 0.9 7.0 0.00 0.00 0.00 82 1018.2
20260509230016 53 62 0.0 3.5 0.00 0.00 0.00 82 1018.0
20260509224521 54 62 0.0 3.5 0.00 0.00 0.00 81 1017.8
20260509223027 55 62 0.0 2.6 0.00 0.00 0.00 80 1017.9
20260509221541 55 62 0.0 3.5 0.00 0.00 0.00 79 1018.1
20260509220013 56 44 0.9 4.3 0.00 0.00 0.00 78 1018.0
20260509214517 57 57 0.9 3.5 0.00 0.00 0.00 76 1018.0
20260509213025 57 49 0.0 7.0 0.00 0.00 0.00 76 1017.9
20260509211523 58 34 2.6 9.6 0.00 0.00 0.00 75 1017.7
20260509210025 58 38 3.5 9.6 0.00 0.00 0.00 74 1017.5
20260509204513 58 54 0.9 3.5 0.00 0.00 0.00 69 1017.5
20260509203020 58 21 1.7 7.0 0.00 0.00 0.00 66 1017.4
20260509201524 58 80 0.0 2.6 0.00 0.00 0.00 64 1017.0
20260509200031 59 80 0.0 3.5 0.00 0.00 0.00 63 1016.7
20260509194525 60 80 0.0 3.5 0.00 0.00 0.00 62 1016.7
20260509193017 61 80 0.0 2.6 0.00 0.00 0.00 60 1016.6
20260509191520 62 80 0.0 3.5 0.00 0.00 0.00 59 1016.6